Tracking 30918 objects as of 3-Jul-2025
HD Live streaming from Space Station
objects crossing your sky now

COSMOS 1779 (GLONASS)

Track COSMOS 1779 (GLONASS) now!
COSMOS 1779 (GLONASS) is classified as:


NORAD ID: 16962
Int'l Code: 1986-071B
Perigee: 19,103.8 km
Apogee: 19,170.1 km
Inclination: 64.7 °
Period: 675.7 minutes
Semi major axis: 25507 km
RCS: 1.5271 m2 (large)
Launch date: September 16, 1986
Source: Commonwealth of Independent States (former USSR) (CIS)
Launch site: TYURATAM MISSILE AND SPACE COMPLEX (TTMTR)
Your satellite tracking list
COSMOS 2251 DEB
Track 1 satellite(s)




NASA's NSSDC Master Catalog

Two Line Element Set (TLE):
1 16962U 86071B   25179.72122075 -.00000022  00000-0  00000-0 0  9991
2 16962  64.6938  84.5337 0012993  39.8945 141.9090  2.13102845301716
Source of the keplerian elements: AFSPC